EN

Hourly Weather Almetyevsk

Today, 17 January, Sunday

Time Temperature Precipitation Wind Pressure Humidity
00:00 -12°C° 0.2 mm 6 mps 729 mmHg 93%
01:00 -14°C° 0.2 mm 6 mps 729 mmHg 93%
02:00 -15°C° 0.2 mm 6 mps 729 mmHg 93%
03:00 -14°C° 0 mm 5 mps 729 mmHg 94%
04:00 -16°C° 0.2 mm 6 mps 729 mmHg 93%
05:00 -17°C° 0.2 mm 6 mps 729 mmHg 93%
06:00 -18°C° 0.2 mm 6 mps 730 mmHg 92%
07:00 -18°C° 0.1 mm 6 mps 730 mmHg 92%
08:00 -20°C° 0.1 mm 6 mps 731 mmHg 92%
09:00 -21°C° 0 mm 6 mps 731 mmHg 92%
10:00 -21°C° 0 mm 6 mps 732 mmHg 92%
11:00 -21°C° 0 mm 6 mps 733 mmHg 92%
12:00 -21°C° 0 mm 6 mps 734 mmHg 92%
13:00 -21°C° 0 mm 5 mps 734 mmHg 93%
14:00 -21°C° 0 mm 5 mps 735 mmHg 94%
15:00 -22°C° 0 mm 4 mps 735 mmHg 95%
16:00 -22°C° 0 mm 3 mps 736 mmHg 96%
17:00 -23°C° 0 mm 3 mps 737 mmHg 98%
18:00 -24°C° 0 mm 3 mps 737 mmHg 99%
19:00 -24°C° 0 mm 2 mps 738 mmHg 99%
20:00 -24°C° 0 mm 2 mps 738 mmHg 99%
21:00 -25°C° 0 mm 2 mps 739 mmHg 99%
22:00 -22°C° 0 mm 1 mps 739 mmHg 99%
23:00 -23°C° 0 mm 1 mps 740 mmHg 99%

Tomorrow, 18 January, Monday

Time Temperature Precipitation Wind Pressure Humidity
00:00 -23°C° 0 mm 1 mps 740 mmHg 99%
01:00 -24°C° 0 mm 0 mps 741 mmHg 99%
02:00 -24°C° 0 mm 0 mps 741 mmHg 99%
03:00 -25°C° 0 mm 0 mps 741 mmHg 99%
04:00 -25°C° 0 mm 0 mps 741 mmHg 99%
05:00 -25°C° 0 mm 0 mps 742 mmHg 99%
06:00 -25°C° 0 mm 0 mps 742 mmHg 99%
07:00 -25°C° 0 mm 0 mps 742 mmHg 98%
08:00 -24°C° 0 mm 0 mps 742 mmHg 97%
09:00 -24°C° 0 mm 0 mps 743 mmHg 97%
10:00 -23°C° 0 mm 0 mps 743 mmHg 95%
11:00 -21°C° 0 mm 0 mps 743 mmHg 93%
12:00 -20°C° 0 mm 0 mps 743 mmHg 92%
13:00 -20°C° 0 mm 0 mps 743 mmHg 93%
14:00 -21°C° 0 mm 0 mps 743 mmHg 94%
15:00 -22°C° 0 mm 1 mps 743 mmHg 95%
16:00 -22°C° 0 mm 1 mps 743 mmHg 94%
17:00 -22°C° 0 mm 1 mps 742 mmHg 94%
18:00 -22°C° 0 mm 1 mps 742 mmHg 94%
19:00 -22°C° 0 mm 1 mps 742 mmHg 93%
20:00 -22°C° 0 mm 1 mps 742 mmHg 93%
21:00 -22°C° 0 mm 1 mps 742 mmHg 93%
22:00 -21°C° 0 mm 1 mps 741 mmHg 93%
23:00 -23°C° 0 mm 2 mps 741 mmHg 93%

Day after tomorrow, 19 January, Tuesday

Time Temperature Precipitation Wind Pressure Humidity
00:00 -23°C° 0 mm 2 mps 741 mmHg 94%
01:00 -21°C° 0.1 mm 2 mps 741 mmHg 94%
02:00 -21°C° 0.1 mm 2 mps 741 mmHg 95%
03:00 -23°C° 0.1 mm 3 mps 740 mmHg 96%
04:00 -23°C° 0.4 mm 3 mps 740 mmHg 96%
05:00 -23°C° 0.4 mm 3 mps 739 mmHg 97%
06:00 -23°C° 0.4 mm 3 mps 739 mmHg 97%
07:00 -22°C° 0.4 mm 3 mps 739 mmHg 97%
08:00 -22°C° 0.4 mm 3 mps 739 mmHg 97%
09:00 -22°C° 0.4 mm 3 mps 738 mmHg 96%
10:00 -22°C° 0.3 mm 3 mps 738 mmHg 96%
11:00 -19°C° 0.3 mm 2 mps 738 mmHg 96%
12:00 -19°C° 0.3 mm 2 mps 738 mmHg 95%
13:00 -19°C° 0.2 mm 2 mps 737 mmHg 95%
14:00 -19°C° 0.2 mm 2 mps 737 mmHg 96%
15:00 -19°C° 0.2 mm 2 mps 737 mmHg 96%
16:00 -17°C° 0 mm 1 mps 737 mmHg 96%
17:00 -18°C° 0 mm 1 mps 737 mmHg 97%
18:00 -18°C° 0 mm 1 mps 736 mmHg 97%
19:00 -18°C° 0 mm 1 mps 736 mmHg 97%
20:00 -18°C° 0 mm 1 mps 736 mmHg 97%
21:00 -18°C° 0 mm 1 mps 736 mmHg 97%
22:00 -19°C° 0.1 mm 1 mps 736 mmHg 97%
23:00 -19°C° 0.1 mm 1 mps 736 mmHg 97%

20 January, Wednesday

Time Temperature Precipitation Wind Pressure Humidity
00:00 -19°C° 0.1 mm 1 mps 736 mmHg 97%
01:00 -21°C° 0.1 mm 2 mps 736 mmHg 97%
02:00 -20°C° 0.1 mm 2 mps 736 mmHg 97%
03:00 -22°C° 0.1 mm 3 mps 737 mmHg 97%
04:00 -22°C° 0.1 mm 3 mps 737 mmHg 97%
05:00 -22°C° 0.1 mm 3 mps 737 mmHg 96%
06:00 -22°C° 0.1 mm 3 mps 737 mmHg 96%
07:00 -24°C° 0.1 mm 4 mps 737 mmHg 96%
08:00 -24°C° 0.1 mm 4 mps 737 mmHg 96%
09:00 -24°C° 0.1 mm 4 mps 737 mmHg 96%
10:00 -24°C° 0.1 mm 5 mps 737 mmHg 95%
11:00 -24°C° 0.1 mm 5 mps 737 mmHg 95%
12:00 -24°C° 0.1 mm 5 mps 738 mmHg 94%
13:00 -24°C° 0.1 mm 5 mps 738 mmHg 95%
14:00 -24°C° 0.1 mm 5 mps 738 mmHg 95%
15:00 -24°C° 0.1 mm 5 mps 738 mmHg 95%
16:00 -24°C° 0.3 mm 5 mps 738 mmHg 95%
17:00 -24°C° 0.3 mm 5 mps 738 mmHg 96%
18:00 -24°C° 0.3 mm 5 mps 738 mmHg 96%
19:00 -24°C° 0.2 mm 5 mps 739 mmHg 95%
20:00 -24°C° 0.2 mm 5 mps 739 mmHg 95%
21:00 -24°C° 0.2 mm 5 mps 739 mmHg 94%
22:00 -23°C° 0 mm 4 mps 739 mmHg 95%
23:00 -23°C° 0 mm 4 mps 739 mmHg 95%

21 January, Thursday

Time Temperature Precipitation Wind Pressure Humidity
00:00 -23°C° 0 mm 4 mps 739 mmHg 96%
01:00 -24°C° 0 mm 4 mps 740 mmHg 96%
02:00 -24°C° 0 mm 4 mps 740 mmHg 97%
03:00 -24°C° 0 mm 4 mps 740 mmHg 97%
04:00 -24°C° 0 mm 4 mps 740 mmHg 97%
05:00 -24°C° 0 mm 4 mps 741 mmHg 97%
06:00 -23°C° 0 mm 3 mps 741 mmHg 97%
07:00 -23°C° 0 mm 4 mps 741 mmHg 97%
08:00 -23°C° 0 mm 4 mps 741 mmHg 96%
09:00 -23°C° 0 mm 4 mps 742 mmHg 96%
10:00 -22°C° 0 mm 4 mps 742 mmHg 96%
11:00 -20°C° 0 mm 4 mps 742 mmHg 95%
12:00 -20°C° 0 mm 4 mps 742 mmHg 95%
13:00 -20°C° 0 mm 4 mps 742 mmHg 95%
14:00 -20°C° 0 mm 5 mps 742 mmHg 94%
15:00 -20°C° 0 mm 5 mps 742 mmHg 94%
16:00 -20°C° 0 mm 5 mps 742 mmHg 94%
17:00 -20°C° 0 mm 5 mps 742 mmHg 95%
18:00 -20°C° 0 mm 5 mps 742 mmHg 95%
19:00 -21°C° 0 mm 5 mps 742 mmHg 96%
20:00 -20°C° 0 mm 4 mps 742 mmHg 96%
21:00 -20°C° 0 mm 4 mps 742 mmHg 96%
22:00 -20°C° 0 mm 5 mps 741 mmHg 95%
23:00 -21°C° 0 mm 6 mps 740 mmHg 93%

22 January, Friday

Time Temperature Precipitation Wind Pressure Humidity
00:00 -20°C° 0 mm 6 mps 739 mmHg 92%
01:00 -20°C° 0.1 mm 7 mps 738 mmHg 92%
02:00 -19°C° 0.1 mm 8 mps 737 mmHg 91%
03:00 -20°C° 0.1 mm 9 mps 736 mmHg 91%
04:00 -20°C° 0.6 mm 9 mps 736 mmHg 91%
05:00 -19°C° 0.6 mm 9 mps 735 mmHg 92%
06:00 -19°C° 0.6 mm 9 mps 734 mmHg 92%
07:00 -17°C° 0.5 mm 8 mps 734 mmHg 93%
08:00 -16°C° 0.5 mm 8 mps 734 mmHg 93%
09:00 -15°C° 0.5 mm 8 mps 734 mmHg 93%
10:00 -13°C° 0.4 mm 7 mps 734 mmHg 93%
11:00 -12°C° 0.4 mm 7 mps 734 mmHg 94%
12:00 -11°C° 0.4 mm 6 mps 733 mmHg 94%
13:00 -9°C° 0.4 mm 6 mps 733 mmHg 95%
14:00 -7°C° 0.4 mm 5 mps 733 mmHg 96%
15:00 -4°C° 0.4 mm 4 mps 733 mmHg 96%
16:00 -5°C° 0.7 mm 5 mps 733 mmHg 97%
17:00 -5°C° 0.7 mm 5 mps 734 mmHg 97%
18:00 -5°C° 0.7 mm 5 mps 734 mmHg 97%
19:00 -8°C° 0.1 mm 4 mps 735 mmHg 96%
20:00 -9°C° 0.1 mm 3 mps 735 mmHg 96%
21:00 -10°C° 0.1 mm 2 mps 736 mmHg 96%
22:00 -12°C° 0 mm 2 mps 737 mmHg 96%
23:00 -14°C° 0 mm 2 mps 737 mmHg 97%
Show more